[[{"header":{"parameterUnit":"m.s-1","parameterCategory":1,"la1":30.2991,"la2":30.254,"lo1":-89.0895,"lo2":-89.0444,"dy":0.0017,"dx":0.0017,"nx":28,"ny":28,"refTime":"2024-05-20T03:00:00:Z","depth":0,"parameterNumber":2,"parameterNumberName":"U-component_of_WINDS"},"data":[0,0,0,0,0,0,0,0,0,0,0,0,0,0,0,0,0,0,0,0,0,0,0,0,0,0,0,0,0,0,0,0,0,0,0,0,0,0,0,0,0,0,0,0,0,0,0,0,0,0,0,0,0,0,0,0,0,0,-1.1759,-1.1758,0,-1.1733,-1.1733,-1.1732,-1.1698,-1.1697,-1.1697,-1.1696,-1.167,-1.1669,-1.1669,0,0,0,0,0,0,0,0,0,0,0,0,0,-1.1777,-1.1777,-1.1759,-1.1758,-1.1758,-1.1733,-1.1733,-1.1732,-1.1698,-1.1697,-1.1697,-1.1696,-1.167,-1.1669,-1.1669,0,0,0,0,0,0,0,0,0,0,0,0,0,-1.1762,-1.1777,-1.1759,-1.1738,-1.1736,-1.1733,-1.1733,-1.1732,-1.1698,-1.1697,-1.1696,-1.1696,-1.167,-1.1669,-1.1669,-1.1685,0,0,-1.1668,-1.1668,0,0,0,0,0,0,0,0,-1.1763,-1.1762,-1.1741,-1.1739,-1.1737,-1.1718,-1.173,-1.1716,-1.1698,-1.1712,-1.1696,-1.1695,-1.1686,-1.1685,-1.1682,-1.1684,-1.1682,-1.1668,-1.1668,-1.1668,-1.1668,0,0,0,0,0,0,0,-1.1764,-1.1763,-1.1748,-1.1741,-1.1738,-1.173,-1.1727,-1.1727,-1.1704,-1.1711,-1.1709,-1.1706,-1.1685,-1.1682,-1.1681,-1.1682,-1.1668,-1.1668,-1.1668,-1.1668,-1.1695,-1.1696,0,0,0,0,0,0,-1.1768,-1.1764,-1.1749,-1.1748,-1.1748,-1.173,-1.1727,-1.1725,-1.1704,-1.17,-1.1707,-1.1705,-1.1683,-1.1681,-1.168,-1.1696,-1.1668,-1.1668,-1.1668,-1.1695,-1.1696,-1.1697,0,0,0,0,0,0,-1.1769,-1.1768,-1.175,-1.1755,-1.1752,-1.1731,-1.1729,-1.1725,-1.1722,-1.1701,-1.1697,-1.1708,-1.1682,-1.168,-1.1684,-1.1695,-1.1668,-1.1667,-1.1693,-1.1695,-1.1696,-1.173,0,0,0,0,0,0,-1.177,-1.1768,-1.1774,-1.1755,-1.1752,-1.1755,-1.173,-1.1725,-1.1722,-1.1718,-1.1701,-1.1697,-1.1681,-1.1684,-1.1684,-1.1694,-1.1667,-1.1692,-1.1694,-1.1696,-1.1728,-1.1733,-1.1736,0,0,0,0,0,-1.177,-1.1784,-1.1774,-1.1773,-1.1759,-1.1756,-1.1754,-1.1735,-1.1723,-1.1728,-1.1715,-1.1698,-1.1694,-1.1685,-1.1684,-1.1695,-1.1692,-1.1694,-1.1696,-1.1726,-1.1732,-1.1736,0,0,0,0,0,0,-1.1804,-1.1781,-1.177,-1.1778,-1.1769,-1.175,-1.1756,-1.1742,-1.1736,-1.1733,-1.171,-1.1706,-1.1713,-1.1704,-1.1694,-1.1709,-1.169,-1.1692,-1.1714,-1.1719,-1.1723,-1.1725,-1.1667,0,0,0,0,0,-1.1812,-1.1812,-1.1792,-1.1801,-1.1797,-1.1778,-1.1776,-1.1762,-1.1752,-1.1748,-1.1735,-1.1725,-1.1722,-1.172,-1.1716,-1.1727,-1.1722,-1.1734,-1.1738,-1.1742,-1.1743,-1.1748,-1.1753,-1.1703,-1.1703,-1.1703,0,0,-1.183,-1.1817,-1.1818,-1.1808,-1.1799,-1.1799,-1.1775,-1.1776,-1.1775,-1.1748,-1.175,-1.1741,-1.1729,-1.1736,-1.1739,-1.1729,-1.1756,-1.1744,-1.1747,-1.1747,-1.1751,-1.1755,-1.176,-1.1704,-1.1704,-1.1704,0,0,-1.1861,-1.1852,-1.1858,-1.185,-1.1838,-1.1825,-1.1826,-1.1809,-1.1802,-1.1804,-1.1784,-1.1783,-1.1778,-1.177,-1.1765,-1.1794,-1.1778,-1.1794,-1.1815,-1.1821,-1.1825,-1.1828,-1.1838,-1.1842,-1.1796,-1.1796,-1.1796,0,-1.1884,-1.1883,-1.1863,-1.1865,-1.1861,-1.1837,-1.1843,-1.1837,-1.1823,-1.1821,-1.1811,-1.1804,-1.1794,-1.1799,-1.1806,-1.1803,-1.1804,-1.1795,-1.1826,-1.1829,-1.1832,-1.1841,-1.1845,-1.1797,-1.1797,-1.1797,-1.1797,0,-1.1911,-1.1911,-1.1918,-1.1906,-1.1903,-1.1907,-1.1888,-1.1887,-1.1874,-1.1862,-1.1865,-1.1853,-1.1846,-1.1846,-1.1833,-1.1849,-1.1844,-1.183,-1.1811,-1.1838,-1.1847,-1.185,-1.18,-1.18,-1.1799,-1.1798,0,0,-1.1962,-1.194,-1.1943,-1.1937,-1.1921,-1.1921,-1.1924,-1.1917,-1.1917,-1.1909,-1.1911,-1.1907,-1.1894,-1.1889,-1.1876,-1.188,-1.1904,-1.1866,-1.1865,-1.1873,-1.192,-1.193,-1.1935,-1.1893,-1.1894,-1.1894,-1.1921,0,-1.199,-1.1994,-1.1977,-1.1986,-1.1985,-1.1963,-1.1965,-1.1956,-1.1946,-1.1943,-1.1931,-1.1929,-1.1912,-1.1909,-1.1913,-1.19,-1.1913,-1.1898,-1.1895,-1.1895,-1.1898,-1.1939,-1.195,-1.1975,-1.1924,-1.1925,-1.1925,0,-1.2023,-1.2017,-1.2026,-1.201,-1.2009,-1.2012,-1.2004,-1.2003,-1.1992,-1.1984,-1.1978,-1.1963,-1.1965,-1.1947,-1.195,-1.194,-1.1938,-1.1931,-1.1932,-1.193,-1.1911,-1.1938,-1.1983,-1.1987,-1.193,-1.193,-1.1929,0,-1.2059,-1.2053,-1.2057,-1.2053,-1.2035,-1.2037,-1.203,-1.2018,-1.2015,-1.2009,-1.2007,-1.2001,-1.1997,-1.1993,-1.1976,-1.1965,-1.198,-1.1961,-1.1973,-1.1973,-1.1976,-1.1976,-1.2021,-1.1976,-1.1976,-1.1976,-1.1976,0,-1.2091,-1.2097,-1.2073,-1.2075,-1.2082,-1.2062,-1.2069,-1.2059,-1.2049,-1.2049,-1.203,-1.203,-1.2008,-1.2006,-1.1993,-1.1997,-1.1996,-1.1989,-1.1985,-1.199,-1.1991,-1.1988,-1.1985,-1.1977,-1.1977,-1.1977,-1.1977,0,-1.2132,-1.2116,-1.2119,-1.2102,-1.2097,-1.2103,-1.2088,-1.209,-1.2078,-1.2079,-1.2078,-1.2059,-1.2056,-1.2039,-1.2032,-1.2023,-1.2031,-1.2024,-1.2035,-1.2032,-1.2045,-1.2044,-1.2089,-1.2093,-1.2046,-1.2047,-1.2047,0,-1.2153,-1.2158,-1.2141,-1.214,-1.2133,-1.2132,-1.2129,-1.211,-1.2107,-1.2095,-1.2099,-1.2094,-1.2089,-1.2086,-1.2071,-1.2066,-1.2058,-1.2074,-1.2057,-1.2062,-1.2058,-1.2057,-1.2058,-1.2078,-1.2078,-1.2079,-1.2079,0,-1.2193,-1.2185,-1.2181,-1.2175,-1.2172,-1.2166,-1.2159,-1.2159,-1.2138,-1.2137,-1.2133,-1.213,-1.2123,-1.2118,-1.2111,-1.2103,-1.2087,-1.2085,-1.2087,-1.2092,-1.2098,-1.2095,-1.2044,-1.2084,-1.2083,-1.2083,-1.2083,-1.2083,-1.2225,-1.2227,-1.2216,-1.2212,-1.2205,-1.2199,-1.22,-1.2188,-1.2185,-1.2178,-1.2167,-1.2165,-1.2155,-1.2142,-1.2136,-1.2134,-1.2126,-1.2129,-1.213,-1.2131,-1.2133,-1.2099,-1.2133,-1.2133,-1.2133,-1.2132,-1.2132,0,-1.2263,-1.2255,-1.2252,-1.2242,-1.224,-1.2226,-1.2218,-1.2216,-1.2215,-1.2207,-1.2202,-1.2199,-1.2194,-1.218,-1.2174,-1.2176,-1.2169,-1.2175,-1.2174,-1.2172,-1.2142,-1.214,-1.2181,-1.2181,-1.2181,-1.2181,-1.2181,-1.2181,-1.2283,-1.2286,-1.2277,-1.2277,-1.2268,-1.2266,-1.2263,-1.2257,-1.225,-1.2247,-1.2243,-1.2234,-1.2223,-1.2216,-1.2212,-1.2207,-1.2206,-1.2215,-1.2208,-1.2179,-1.2175,-1.217,-1.2169,-1.2215,-1.2215,-1.2239,-1.2239,-1.2239]},{"header":{"parameterUnit":"m.s-1","parameterCategory":1,"la1":30.2991,"la2":30.254,"lo1":-89.0895,"lo2":-89.0444,"dy":0.0017,"dx":0.0017,"nx":28,"ny":28,"refTime":"2024-05-20T03:00:00:Z","depth":0,"parameterNumber":3,"parameterNumberName":"V-component_of_WINDS"},"data":[0,0,0,0,0,0,0,0,0,0,0,0,0,0,0,0,0,0,0,0,0,0,0,0,0,0,0,0,0,0,0,0,0,0,0,0,0,0,0,0,0,0,0,0,0,0,0,0,0,0,0,0,0,0,0,0,0,0,1.9057,1.9058,0,1.9069,1.9069,1.9069,1.9048,1.9048,1.9047,1.9046,1.9057,1.9058,1.9059,0,0,0,0,0,0,0,0,0,0,0,0,0,1.9018,1.9019,1.9057,1.9058,1.9058,1.9069,1.9069,1.9069,1.9048,1.9048,1.9047,1.9046,1.9056,1.9058,1.9059,0,0,0,0,0,0,0,0,0,0,0,0,0,1.9033,1.9019,1.9057,1.9049,1.9048,1.9069,1.9069,1.9069,1.9049,1.9048,1.9047,1.9046,1.9056,1.9057,1.9059,1.9088,0,0,1.9063,1.9064,0,0,0,0,0,0,0,0,1.9032,1.9034,1.905,1.9049,1.9049,1.9056,1.9059,1.9075,1.9049,1.9048,1.9046,1.9045,1.9057,1.9058,1.9063,1.9088,1.9089,1.9063,1.9064,1.9065,1.9065,0,0,0,0,0,0,0,1.9031,1.9033,1.9062,1.905,1.9049,1.9044,1.9045,1.9062,1.9058,1.9048,1.9047,1.9049,1.9057,1.9062,1.9063,1.9089,1.9063,1.9064,1.9065,1.9066,1.9139,1.914,0,0,0,0,0,0,1.9031,1.9033,1.9061,1.9062,1.9038,1.9046,1.9047,1.9055,1.9058,1.9058,1.9049,1.9048,1.906,1.9061,1.9063,1.9098,1.9065,1.9066,1.9067,1.9138,1.914,1.9141,0,0,0,0,0,0,1.903,1.9034,1.9061,1.9047,1.905,1.9048,1.9057,1.9055,1.906,1.9059,1.9058,1.9055,1.9059,1.9061,1.9082,1.9098,1.9066,1.9068,1.9137,1.9139,1.914,1.9167,0,0,0,0,0,0,1.9029,1.9033,1.9045,1.9047,1.9051,1.908,1.9057,1.9056,1.9063,1.906,1.9064,1.9064,1.9058,1.908,1.9083,1.9099,1.9069,1.9136,1.9138,1.914,1.9165,1.917,1.9174,0,0,0,0,0,1.9028,1.9051,1.9045,1.9049,1.9065,1.9081,1.9083,1.9077,1.9064,1.9075,1.9075,1.9063,1.9096,1.9082,1.9086,1.9103,1.9134,1.9137,1.914,1.9163,1.9169,1.9174,0,0,0,0,0,0,1.905,1.9052,1.9045,1.907,1.9076,1.9077,1.9091,1.9083,1.9092,1.9089,1.9081,1.9082,1.9104,1.9105,1.909,1.9131,1.9113,1.9116,1.913,1.9135,1.9139,1.9139,1.907,0,0,0,0,0,1.9058,1.9071,1.9072,1.9094,1.9097,1.9094,1.91,1.9095,1.91,1.9102,1.9103,1.9108,1.912,1.9127,1.9138,1.9165,1.9166,1.9178,1.9183,1.9186,1.9189,1.9205,1.921,1.9149,1.9149,1.9149,0,0,1.9074,1.9077,1.9085,1.9098,1.9102,1.9116,1.9096,1.9111,1.9121,1.9105,1.9125,1.9125,1.9131,1.9155,1.9166,1.9157,1.9206,1.9189,1.9192,1.9194,1.9208,1.9214,1.9219,1.9151,1.9151,1.915,0,0,1.9111,1.9114,1.9133,1.9138,1.9144,1.9141,1.9146,1.9149,1.9149,1.9169,1.9158,1.9169,1.9189,1.9193,1.9198,1.9238,1.9228,1.9241,1.9264,1.9279,1.9284,1.9288,1.9303,1.9308,1.9244,1.9244,1.9244,0,1.9131,1.9151,1.9144,1.9161,1.9167,1.9153,1.9173,1.9177,1.9186,1.9191,1.918,1.9205,1.9208,1.9233,1.9243,1.9247,1.9252,1.9241,1.9284,1.9288,1.9292,1.9306,1.9311,1.9246,1.9246,1.9246,1.9246,0,1.9175,1.919,1.9204,1.9214,1.9222,1.924,1.9236,1.9244,1.9239,1.9238,1.9258,1.9261,1.9272,1.9277,1.9272,1.9303,1.9297,1.9285,1.9267,1.93,1.9313,1.9318,1.9248,1.9248,1.9247,1.9247,0,0,1.9226,1.9232,1.9238,1.9243,1.9248,1.9259,1.9277,1.9288,1.9296,1.9302,1.9317,1.9334,1.9324,1.933,1.9324,1.9337,1.9369,1.9324,1.9324,1.9333,1.9404,1.9413,1.9419,1.9363,1.9364,1.9364,1.9404,0,1.9263,1.9294,1.9289,1.9318,1.9332,1.9319,1.9334,1.9339,1.9339,1.935,1.9349,1.9362,1.9347,1.9351,1.9363,1.9363,1.9383,1.936,1.9376,1.9377,1.9376,1.9426,1.9435,1.9472,1.9409,1.9409,1.941,0,1.9311,1.932,1.9351,1.9356,1.9361,1.9375,1.9385,1.9396,1.9402,1.94,1.9407,1.9399,1.9417,1.9398,1.9422,1.9406,1.9413,1.9414,1.9415,1.9416,1.9396,1.9429,1.9484,1.9489,1.9418,1.9417,1.9417,0,1.9346,1.9366,1.9387,1.9392,1.9397,1.9407,1.941,1.9415,1.9422,1.9431,1.9435,1.9446,1.9452,1.946,1.9455,1.9442,1.948,1.9461,1.948,1.948,1.9489,1.9489,1.9546,1.9492,1.9492,1.9492,1.9492,0,1.9389,1.9408,1.9403,1.9417,1.9438,1.9432,1.9454,1.9455,1.9459,1.9472,1.9462,1.9474,1.9467,1.9479,1.9476,1.9497,1.9499,1.9499,1.9498,1.95,1.95,1.9504,1.9502,1.9494,1.9493,1.9493,1.9493,0,1.9432,1.9429,1.9452,1.9455,1.9457,1.9473,1.9475,1.9488,1.9487,1.9504,1.9507,1.9505,1.9519,1.9515,1.953,1.9527,1.9554,1.9549,1.9552,1.9551,1.9571,1.9569,1.9633,1.9641,1.9582,1.9583,1.9583,0,1.9459,1.9474,1.9479,1.9488,1.9491,1.9505,1.9512,1.9507,1.9515,1.9523,1.9535,1.9547,1.9557,1.958,1.958,1.9591,1.9587,1.9609,1.9589,1.9591,1.9588,1.9587,1.9589,1.9613,1.9613,1.9614,1.9614,0,1.9509,1.9507,1.9518,1.953,1.9539,1.9548,1.9555,1.9563,1.9557,1.9567,1.9582,1.9589,1.9605,1.9618,1.9628,1.9631,1.9622,1.9621,1.9626,1.9628,1.963,1.963,1.9564,1.9619,1.9619,1.9618,1.9618,1.9618,1.9545,1.9558,1.9564,1.9578,1.9583,1.959,1.9602,1.9603,1.9615,1.9627,1.9623,1.9639,1.9645,1.9658,1.9662,1.9675,1.9666,1.9674,1.9676,1.9678,1.968,1.9628,1.9676,1.9676,1.9676,1.9676,1.9676,0,1.9595,1.9598,1.961,1.9622,1.9632,1.9623,1.9631,1.9641,1.9655,1.9662,1.9672,1.9688,1.9701,1.9702,1.9714,1.9724,1.972,1.9727,1.9727,1.9728,1.9687,1.9681,1.973,1.973,1.973,1.973,1.973,1.973,1.9622,1.9643,1.9642,1.9667,1.967,1.9686,1.9692,1.9698,1.9704,1.9723,1.9733,1.9734,1.9738,1.9751,1.9762,1.9762,1.9767,1.9776,1.9774,1.9736,1.9731,1.9725,1.972,1.9777,1.9777,1.9814,1.9815,1.9815]}]]